BREEZE-M DEB (TANK) - Orbit

View from above orbital plane
View from above orbital plane
View from above satellite
View from above satellite

Ground track
Ground track

The orbit data is extracted from the following two-line orbital elements,

1 37800U 11045C   12255.88487016  .38726754  13565-4  55857-3 0   862
2 37800 049.2085 144.3765 0164944 040.4429 321.3161 16.18713956 38059
Epoch (UTC): 11 September 2012 21:14:12
Eccentricity: 0.0164944
inclination: 49.2085°
perigee height: 114 km
apogee height: 332 km
right ascension of ascending node: 144.3765°
argument of perigee: 40.4429°
revolutions per day: 16.18713956
mean anomaly at epoch: 321.3161°
orbit number at epoch: 3805

The dashed part of the orbit path shows where the satellite is in the earth's shadow,  

Developed and maintained by Chris Peat, Heavens-Above GmbH. Please read the updated FAQ before sending e-mail. Imprint. DLR